Saint Bonnet de Bellac- Haute Vienne - France
Donnes mto: jeudi, 19/04/2012
Date Horaire Temp. E. Hum. E. P.atmo. Pluie Vent Direction Direction Ensoleilleme Solaire P. de rose Temp au vent Rafales
19/04/2012 00:00 6,9 C 88 % 992,3 hPa 0,0 mm 6,5 km/h (2 Bft) O-SO 247 0 min 0 W/m 5,1 C 5,8 C 12,2 km/h (2 Bft)
19/04/2012 00:10 6,9 C 88 % 992,3 hPa 0,0 mm 7,9 km/h (2 Bft) S-SO 202 0 min 0 W/m 5,1 C 5,4 C 7,9 km/h (2 Bft)
19/04/2012 00:20 6,9 C 88 % 992,2 hPa 0,0 mm 9,4 km/h (2 Bft) SO 225 0 min 0 W/m 5,1 C 5,1 C 17,3 km/h (3 Bft)
19/04/2012 00:30 7,1 C 89 % 992,2 hPa 0,0 mm 11,9 km/h (2 Bft) SO 225 0 min 0 W/m 5,4 C 4,8 C 17,3 km/h (3 Bft)
19/04/2012 00:40 7,1 C 89 % 992,2 hPa 0,0 mm 11,2 km/h (2 Bft) SO 225 0 min 0 W/m 5,4 C 4,9 C 14,4 km/h (3 Bft)
19/04/2012 00:50 7,2 C 89 % 992,2 hPa 0,0 mm 12,2 km/h (2 Bft) SO 225 0 min 0 W/m 5,5 C 4,9 C 18,0 km/h (3 Bft)
19/04/2012 01:00 7,3 C 89 % 992,1 hPa 0,0 mm 7,6 km/h (2 Bft) S-SO 202 0 min 0 W/m 5,6 C 5,9 C 10,8 km/h (2 Bft)
19/04/2012 01:10 7,3 C 89 % 992,1 hPa 0,0 mm 11,2 km/h (2 Bft) SO 225 0 min 0 W/m 5,6 C 5,2 C 16,2 km/h (3 Bft)
19/04/2012 01:20 7,3 C 90 % 992,1 hPa 0,0 mm 3,2 km/h (1 Bft) S-SO 202 0 min 0 W/m 5,8 C 7,3 C 7,9 km/h (2 Bft)
19/04/2012 01:30 7,2 C 91 % 992,1 hPa 0,1 mm 6,1 km/h (2 Bft) SO 225 0 min 0 W/m 5,8 C 6,2 C 9,0 km/h (2 Bft)
19/04/2012 01:40 7,1 C 90 % 992,1 hPa 0,3 mm 3,6 km/h (1 Bft) SO 225 0 min 0 W/m 5,6 C 7,1 C 3,6 km/h (1 Bft)
19/04/2012 01:50 6,9 C 90 % 992,1 hPa 0,8 mm 2,9 km/h (1 Bft) SO 225 0 min 0 W/m 5,4 C 6,9 C 4,3 km/h (1 Bft)
19/04/2012 02:00 6,8 C 90 % 992,2 hPa 0,3 mm 0,7 km/h (0 Bft) O-SO 247 0 min 0 W/m 5,3 C 6,8 C 4,0 km/h (1 Bft)
19/04/2012 02:10 6,4 C 90 % 992,2 hPa 0,7 mm 1,1 km/h (1 Bft) O-SO 247 0 min 0 W/m 4,9 C 6,4 C 3,6 km/h (1 Bft)
19/04/2012 02:20 6,2 C 91 % 992,1 hPa 0,1 mm 5,0 km/h (1 Bft) S-SO 202 0 min 0 W/m 4,8 C 5,4 C 9,4 km/h (2 Bft)
19/04/2012 02:30 6,2 C 92 % 992,1 hPa 0,1 mm 5,4 km/h (2 Bft) S-SO 202 0 min 0 W/m 5,0 C 5,3 C 9,0 km/h (2 Bft)
19/04/2012 02:40 6,2 C 92 % 992,1 hPa 0,2 mm 3,6 km/h (1 Bft) SO 225 0 min 0 W/m 5,0 C 6,2 C 7,9 km/h (2 Bft)
19/04/2012 02:50 6,2 C 92 % 992,0 hPa 0,2 mm 5,8 km/h (2 Bft) S-SO 202 0 min 0 W/m 5,0 C 5,2 C 8,3 km/h (2 Bft)
19/04/2012 03:02 6,3 C 93 % 992,0 hPa 0,2 mm 4,7 km/h (1 Bft) O-SO 247 0 min 0 W/m 5,3 C 5,7 C 10,8 km/h (2 Bft)
19/04/2012 03:10 6,5 C 93 % 991,9 hPa 0,0 mm 6,5 km/h (2 Bft) S-SO 202 0 min 0 W/m 5,5 C 5,3 C 10,4 km/h (2 Bft)
19/04/2012 03:20 6,5 C 93 % 991,8 hPa 0,0 mm 8,3 km/h (2 Bft) SO 225 0 min 0 W/m 5,5 C 4,8 C 10,4 km/h (2 Bft)
19/04/2012 03:30 6,6 C 93 % 991,8 hPa 0,0 mm 8,6 km/h (2 Bft) S-SO 202 0 min 0 W/m 5,6 C 4,9 C 11,5 km/h (2 Bft)
19/04/2012 03:40 6,7 C 93 % 991,8 hPa 0,1 mm 13,0 km/h (3 Bft) S-SO 202 0 min 0 W/m 5,6 C 4,1 C 13,0 km/h (3 Bft)
19/04/2012 03:50 6,8 C 93 % 991,8 hPa 0,1 mm 10,4 km/h (2 Bft) S-SO 202 0 min 0 W/m 5,7 C 4,7 C 14,0 km/h (3 Bft)
19/04/2012 04:00 6,6 C 92 % 991,8 hPa 0,0 mm 8,6 km/h (2 Bft) SO 225 0 min 0 W/m 5,4 C 4,9 C 8,6 km/h (2 Bft)
19/04/2012 04:10 6,5 C 92 % 991,8 hPa 0,0 mm 6,5 km/h (2 Bft) SO 225 0 min 0 W/m 5,3 C 5,3 C 9,0 km/h (2 Bft)
19/04/2012 04:20 6,4 C 92 % 991,8 hPa 0,0 mm 7,6 km/h (2 Bft) SO 225 0 min 0 W/m 5,2 C 4,9 C 12,6 km/h (3 Bft)
19/04/2012 04:30 6,3 C 92 % 991,7 hPa 0,0 mm 7,9 km/h (2 Bft) O-SO 247 0 min 0 W/m 5,1 C 4,7 C 10,1 km/h (2 Bft)
19/04/2012 04:40 6,3 C 92 % 991,8 hPa 0,0 mm 9,0 km/h (2 Bft) SO 225 0 min 0 W/m 5,1 C 4,4 C 9,4 km/h (2 Bft)
19/04/2012 04:50 6,3 C 92 % 991,8 hPa 0,0 mm 10,4 km/h (2 Bft) SO 225 0 min 0 W/m 5,1 C 4,1 C 13,3 km/h (3 Bft)
19/04/2012 05:00 6,3 C 92 % 991,6 hPa 0,0 mm 10,1 km/h (2 Bft) S-SO 202 0 min 0 W/m 5,1 C 4,2 C 10,1 km/h (2 Bft)
19/04/2012 05:10 6,3 C 93 % 991,5 hPa 0,0 mm 10,4 km/h (2 Bft) S-SO 202 0 min 0 W/m 5,3 C 4,1 C 14,0 km/h (3 Bft)
19/04/2012 05:20 6,3 C 93 % 991,6 hPa 0,0 mm 11,9 km/h (2 Bft) SO 225 0 min 0 W/m 5,3 C 3,8 C 17,6 km/h (3 Bft)
19/04/2012 05:30 6,3 C 93 % 991,6 hPa 0,1 mm 6,1 km/h (2 Bft) S-SO 202 0 min 0 W/m 5,3 C 5,2 C 10,1 km/h (2 Bft)
19/04/2012 05:40 6,3 C 93 % 991,4 hPa 0,3 mm 8,6 km/h (2 Bft) S-SO 202 0 min 0 W/m 5,3 C 4,5 C 13,0 km/h (3 Bft)
19/04/2012 05:50 6,2 C 93 % 991,5 hPa 0,0 mm 7,6 km/h (2 Bft) SO 225 0 min 0 W/m 5,2 C 4,6 C 11,2 km/h (2 Bft)
19/04/2012 06:00 6,2 C 93 % 991,4 hPa 0,0 mm 8,3 km/h (2 Bft) SO 225 0 min 0 W/m 5,2 C 4,5 C 9,4 km/h (2 Bft)
19/04/2012 06:10 6,2 C 93 % 991,3 hPa 0,0 mm 8,6 km/h (2 Bft) S-SO 202 0 min 0 W/m 5,2 C 4,4 C 11,5 km/h (2 Bft)
19/04/2012 06:20 6,2 C 93 % 991,2 hPa 0,0 mm 9,4 km/h (2 Bft) SO 225 0 min 0 W/m 5,2 C 4,2 C 11,9 km/h (2 Bft)
19/04/2012 06:30 6,3 C 93 % 991,3 hPa 0,0 mm 9,0 km/h (2 Bft) SO 225 0 min 0 W/m 5,3 C 4,4 C 11,9 km/h (2 Bft)
19/04/2012 06:40 6,3 C 93 % 991,4 hPa 0,3 mm 8,3 km/h (2 Bft) SO 225 0 min 0 W/m 5,3 C 4,6 C 10,8 km/h (2 Bft)
19/04/2012 06:50 6,3 C 93 % 991,4 hPa 0,1 mm 6,8 km/h (2 Bft) S-SE 157 0 min 0 W/m 5,3 C 5,0 C 8,3 km/h (2 Bft)
19/04/2012 07:00 6,3 C 93 % 991,4 hPa 0,0 mm 7,6 km/h (2 Bft) S 180 0 min 0 W/m 5,3 C 4,8 C 10,1 km/h (2 Bft)
19/04/2012 07:10 6,3 C 93 % 991,6 hPa 0,3 mm 3,2 km/h (1 Bft) SO 225 0 min 0 W/m 5,3 C 6,3 C 8,6 km/h (2 Bft)
19/04/2012 07:20 6,3 C 93 % 991,7 hPa 0,2 mm 2,2 km/h (1 Bft) O-SO 247 2 min 0 W/m 5,3 C 6,3 C 2,9 km/h (1 Bft)
19/04/2012 07:30 6,3 C 93 % 991,6 hPa 0,1 mm 2,9 km/h (1 Bft) O-SO 247 2 min 0 W/m 5,3 C 6,3 C 6,1 km/h (2 Bft)
19/04/2012 07:40 6,3 C 93 % 991,7 hPa 0,0 mm 1,1 km/h (1 Bft) O-SO 247 2 min 0 W/m 5,3 C 6,3 C 3,6 km/h (1 Bft)
19/04/2012 07:50 6,3 C 93 % 991,8 hPa 0,2 mm 6,5 km/h (2 Bft) O-SO 247 2 min 0 W/m 5,3 C 5,1 C 11,5 km/h (2 Bft)
19/04/2012 08:00 6,3 C 93 % 992,0 hPa 0,4 mm 4,7 km/h (1 Bft) SO 225 2 min 0 W/m 5,3 C 5,7 C 6,5 km/h (2 Bft)
19/04/2012 08:10 6,3 C 93 % 992,1 hPa 0,1 mm 3,6 km/h (1 Bft) O 270 2 min 0 W/m 5,3 C 6,3 C 6,8 km/h (2 Bft)
19/04/2012 08:20 6,3 C 93 % 992,0 hPa 0,0 mm 4,3 km/h (1 Bft) S-SO 202 2 min 0 W/m 5,3 C 6,3 C 10,4 km/h (2 Bft)
19/04/2012 08:30 6,3 C 93 % 992,0 hPa 0,0 mm 10,8 km/h (2 Bft) S-SO 202 2 min 0 W/m 5,3 C 4,1 C 10,8 km/h (2 Bft)
19/04/2012 08:40 6,3 C 92 % 992,1 hPa 0,1 mm 6,5 km/h (2 Bft) SO 225 2 min 0 W/m 5,1 C 5,1 C 9,4 km/h (2 Bft)
19/04/2012 08:50 6,2 C 92 % 992,1 hPa 0,1 mm 10,1 km/h (2 Bft) SO 225 2 min 0 W/m 5,0 C 4,1 C 15,5 km/h (3 Bft)
19/04/2012 09:00 6,1 C 92 % 992,2 hPa 0,1 mm 4,3 km/h (1 Bft) S-SO 202 2 min 0 W/m 4,9 C 6,1 C 7,6 km/h (2 Bft)
19/04/2012 09:10 6,1 C 92 % 992,2 hPa 0,0 mm 7,2 km/h (2 Bft) S-SO 202 2 min 0 W/m 4,9 C 4,6 C 11,5 km/h (2 Bft)
19/04/2012 09:20 6,3 C 93 % 992,3 hPa 0,0 mm 5,8 km/h (2 Bft) S-SO 202 2 min 0 W/m 5,3 C 5,3 C 8,6 km/h (2 Bft)
19/04/2012 09:30 6,6 C 93 % 992,4 hPa 0,0 mm 14,4 km/h (3 Bft) SO 225 2 min 0 W/m 5,6 C 3,8 C 18,4 km/h (3 Bft)
19/04/2012 09:40 6,8 C 92 % 992,4 hPa 0,0 mm 9,0 km/h (2 Bft) O-SO 247 2 min 0 W/m 5,6 C 5,0 C 10,1 km/h (2 Bft)
19/04/2012 09:50 7,1 C 92 % 992,4 hPa 0,0 mm 8,6 km/h (2 Bft) SO 225 2 min 0 W/m 5,9 C 5,5 C 14,0 km/h (3 Bft)
19/04/2012 10:00 7,1 C 92 % 992,4 hPa 0,0 mm 5,8 km/h (2 Bft) O-SO 247 2 min 0 W/m 5,9 C 6,2 C 10,4 km/h (2 Bft)
19/04/2012 10:10 7,4 C 92 % 992,4 hPa 0,0 mm 10,1 km/h (2 Bft) O-SO 247 2 min 0 W/m 6,2 C 5,5 C 11,5 km/h (2 Bft)
19/04/2012 10:20 7,6 C 91 % 992,5 hPa 0,0 mm 7,2 km/h (2 Bft) S-SO 202 2 min 0 W/m 6,2 C 6,4 C 14,4 km/h (3 Bft)
19/04/2012 10:30 7,5 C 91 % 992,5 hPa 0,0 mm 7,6 km/h (2 Bft) S 180 2 min 0 W/m 6,1 C 6,2 C 8,6 km/h (2 Bft)
19/04/2012 10:40 7,6 C 91 % 992,6 hPa 0,0 mm 7,2 km/h (2 Bft) SO 225 2 min 0 W/m 6,2 C 6,4 C 9,4 km/h (2 Bft)
19/04/2012 10:50 7,6 C 91 % 992,7 hPa 0,0 mm 6,8 km/h (2 Bft) S-SO 202 2 min 0 W/m 6,2 C 6,5 C 10,1 km/h (2 Bft)
19/04/2012 11:00 7,8 C 92 % 992,8 hPa 0,0 mm 7,2 km/h (2 Bft) SO 225 2 min 0 W/m 6,6 C 6,6 C 11,5 km/h (2 Bft)
19/04/2012 11:10 7,9 C 91 % 992,9 hPa 0,0 mm 6,5 km/h (2 Bft) SO 225 2 min 0 W/m 6,5 C 6,9 C 9,0 km/h (2 Bft)
19/04/2012 11:20 8,6 C 91 % 993,0 hPa 0,0 mm 8,3 km/h (2 Bft) SO 225 2 min 0 W/m 7,2 C 7,3 C 17,3 km/h (3 Bft)
19/04/2012 11:30 9,4 C 89 % 993,1 hPa 0,0 mm 4,7 km/h (1 Bft) SO 225 2 min 0 W/m 7,7 C 9,2 C 10,8 km/h (2 Bft)
19/04/2012 11:40 9,4 C 85 % 993,1 hPa 0,0 mm 5,8 km/h (2 Bft) SO 225 2 min 0 W/m 7,0 C 8,8 C 6,5 km/h (2 Bft)
19/04/2012 11:50 9,3 C 84 % 993,1 hPa 0,0 mm 11,5 km/h (2 Bft) O 270 2 min 0 W/m 6,7 C 7,5 C 11,5 km/h (2 Bft)
19/04/2012 12:00 9,5 C 85 % 993,1 hPa 0,0 mm 11,5 km/h (2 Bft) S-SO 202 2 min 0 W/m 7,1 C 7,8 C 15,8 km/h (3 Bft)
19/04/2012 12:10 9,7 C 83 % 993,1 hPa 0,0 mm 8,3 km/h (2 Bft) S 180 2 min 0 W/m 7,0 C 8,6 C 13,0 km/h (3 Bft)
19/04/2012 12:20 9,9 C 83 % 993,1 hPa 0,0 mm 3,2 km/h (1 Bft) SO 225 2 min 0 W/m 7,2 C 9,9 C 6,5 km/h (2 Bft)
19/04/2012 12:30 10,3 C 83 % 993,1 hPa 0,0 mm 6,8 km/h (2 Bft) O-SO 247 2 min 0 W/m 7,5 C 10,3 C 11,9 km/h (2 Bft)
19/04/2012 12:40 10,8 C 81 % 993,1 hPa 0,0 mm 5,8 km/h (2 Bft) S 180 2 min 0 W/m 7,7 C 10,8 C 15,1 km/h (3 Bft)
19/04/2012 12:50 10,5 C 78 % 993,2 hPa 0,0 mm 4,7 km/h (1 Bft) SO 225 2 min 0 W/m 6,8 C 10,5 C 4,7 km/h (1 Bft)
19/04/2012 13:00 10,6 C 81 % 993,1 hPa 0,0 mm 7,6 km/h (2 Bft) O-SO 247 2 min 0 W/m 7,5 C 10,6 C 7,6 km/h (2 Bft)
19/04/2012 13:10 11,1 C 78 % 993,0 hPa 0,0 mm 0,0 km/h (0 Bft) O-SO 247 2 min 0 W/m 7,4 C 11,1 C 3,6 km/h (1 Bft)
19/04/2012 13:20 11,3 C 78 % 993,1 hPa 0,0 mm 0,4 km/h (0 Bft) O-SO 247 2 min 0 W/m 7,6 C 11,3 C 4,0 km/h (1 Bft)
19/04/2012 13:30 11,4 C 75 % 993,0 hPa 0,0 mm 1,8 km/h (1 Bft) S 180 2 min 0 W/m 7,1 C 11,4 C 8,3 km/h (2 Bft)
19/04/2012 13:40 11,8 C 73 % 993,0 hPa 0,0 mm 2,9 km/h (1 Bft) O-SO 247 2 min 0 W/m 7,1 C 11,8 C 2,9 km/h (1 Bft)
19/04/2012 13:50 12,0 C 69 % 993,0 hPa 0,0 mm 4,3 km/h (1 Bft) O-SO 247 2 min 0 W/m 6,5 C 12,0 C 4,3 km/h (1 Bft)
19/04/2012 14:00 12,5 C 72 % 993,0 hPa 0,0 mm 7,6 km/h (2 Bft) O-NO 292 2 min 0 W/m 7,6 C 12,5 C 7,6 km/h (2 Bft)
19/04/2012 14:10 12,8 C 67 % 993,4 hPa 0,1 mm 10,1 km/h (2 Bft) SO 225 2 min 0 W/m 6,8 C 12,8 C 10,1 km/h (2 Bft)
19/04/2012 14:20 10,8 C 73 % 993,9 hPa 0,0 mm 7,2 km/h (2 Bft) O 270 2 min 0 W/m 6,2 C 10,8 C 17,3 km/h (3 Bft)
19/04/2012 14:30 9,3 C 78 % 994,0 hPa 0,1 mm 6,1 km/h (2 Bft) SO 225 2 min 0 W/m 5,7 C 8,6 C 12,6 km/h (3 Bft)
19/04/2012 14:40 8,4 C 84 % 994,0 hPa 0,1 mm 5,4 km/h (2 Bft) S-SO 202 2 min 0 W/m 5,9 C 7,8 C 8,6 km/h (2 Bft)
19/04/2012 14:50 8,5 C 86 % 994,0 hPa 0,0 mm 1,8 km/h (1 Bft) O-SO 247 2 min 0 W/m 6,3 C 8,5 C 6,5 km/h (2 Bft)
19/04/2012 15:00 9,3 C 86 % 994,0 hPa 0,0 mm 7,9 km/h (2 Bft) SO 225 2 min 0 W/m 7,1 C 8,2 C 7,9 km/h (2 Bft)
19/04/2012 15:10 10,1 C 84 % 994,0 hPa 0,0 mm 4,3 km/h (1 Bft) S-SO 202 2 min 0 W/m 7,5 C 10,1 C 4,3 km/h (1 Bft)
19/04/2012 15:20 10,8 C 84 % 994,0 hPa 0,0 mm 5,0 km/h (1 Bft) SO 225 2 min 0 W/m 8,2 C 10,8 C 10,1 km/h (2 Bft)
19/04/2012 15:30 11,1 C 80 % 993,9 hPa 0,0 mm 8,3 km/h (2 Bft) S-SO 202 2 min 0 W/m 7,8 C 11,1 C 14,0 km/h (3 Bft)
19/04/2012 15:40 11,1 C 79 % 994,0 hPa 0,0 mm 1,4 km/h (1 Bft) NO 315 2 min 0 W/m 7,6 C 11,1 C 7,2 km/h (2 Bft)
19/04/2012 15:50 11,1 C 77 % 993,8 hPa 0,0 mm 5,0 km/h (1 Bft) O 270 2 min 0 W/m 7,2 C 11,1 C 5,0 km/h (1 Bft)
19/04/2012 16:00 10,9 C 76 % 993,8 hPa 0,0 mm 2,5 km/h (1 Bft) O-SO 247 2 min 0 W/m 6,8 C 10,9 C 3,6 km/h (1 Bft)
19/04/2012 16:10 10,4 C 78 % 993,9 hPa 0,6 mm 0,0 km/h (0 Bft) O 270 2 min 0 W/m 6,7 C 10,4 C 0,0 km/h (0 Bft)
19/04/2012 16:20 9,8 C 79 % 994,2 hPa 0,1 mm 4,3 km/h (1 Bft) O-SO 247 2 min 0 W/m 6,3 C 9,8 C 4,3 km/h (1 Bft)
19/04/2012 16:30 8,8 C 84 % 994,0 hPa 0,1 mm 6,8 km/h (2 Bft) SO 225 2 min 0 W/m 6,2 C 7,9 C 6,8 km/h (2 Bft)
19/04/2012 16:40 8,9 C 86 % 994,1 hPa 0,1 mm 5,4 km/h (2 Bft) O-SO 247 2 min 0 W/m 6,7 C 8,4 C 15,5 km/h (3 Bft)
19/04/2012 16:50 9,7 C 87 % 994,0 hPa 0,0 mm 10,8 km/h (2 Bft) O-SO 247 2 min 0 W/m 7,6 C 8,1 C 13,3 km/h (3 Bft)
19/04/2012 17:00 10,3 C 83 % 994,2 hPa 0,0 mm 4,0 km/h (1 Bft) O 270 2 min 0 W/m 7,5 C 10,3 C 12,2 km/h (2 Bft)
19/04/2012 17:10 10,3 C 82 % 994,3 hPa 0,0 mm 7,2 km/h (2 Bft) O-SO 247 2 min 0 W/m 7,4 C 10,3 C 11,2 km/h (2 Bft)
19/04/2012 17:20 9,9 C 81 % 994,3 hPa 0,0 mm 8,3 km/h (2 Bft) O-SO 247 2 min 0 W/m 6,8 C 8,8 C 9,4 km/h (2 Bft)
19/04/2012 17:30 9,8 C 84 % 994,3 hPa 0,0 mm 3,6 km/h (1 Bft) SO 225 2 min 0 W/m 7,2 C 9,8 C 9,4 km/h (2 Bft)
19/04/2012 17:40 10,4 C 83 % 994,2 hPa 0,0 mm 6,8 km/h (2 Bft) O-SO 247 2 min 0 W/m 7,6 C 10,4 C 10,4 km/h (2 Bft)
19/04/2012 17:50 10,6 C 78 % 994,4 hPa 0,0 mm 8,3 km/h (2 Bft) O-SO 247 2 min 0 W/m 6,9 C 10,6 C 10,4 km/h (2 Bft)
19/04/2012 18:00 9,8 C 78 % 994,8 hPa 0,5 mm 10,1 km/h (2 Bft) SO 225 2 min 0 W/m 6,1 C 8,4 C 12,6 km/h (3 Bft)
19/04/2012 18:10 8,5 C 84 % 994,7 hPa 0,1 mm 9,4 km/h (2 Bft) SO 225 2 min 0 W/m 6,0 C 7,0 C 12,6 km/h (3 Bft)
19/04/2012 18:20 8,3 C 85 % 994,8 hPa 0,0 mm 7,6 km/h (2 Bft) SO 225 2 min 0 W/m 5,9 C 7,1 C 10,8 km/h (2 Bft)
19/04/2012 18:30 8,3 C 86 % 994,8 hPa 0,0 mm 7,6 km/h (2 Bft) SO 225 2 min 0 W/m 6,1 C 7,1 C 12,2 km/h (2 Bft)
19/04/2012 18:40 8,6 C 87 % 994,9 hPa 0,0 mm 6,5 km/h (2 Bft) O-SO 247 2 min 0 W/m 6,6 C 7,7 C 10,1 km/h (2 Bft)
19/04/2012 18:50 9,2 C 86 % 995,0 hPa 0,0 mm 5,0 km/h (1 Bft) O-SO 247 2 min 0 W/m 7,0 C 8,8 C 9,4 km/h (2 Bft)
19/04/2012 19:00 9,2 C 84 % 995,0 hPa 0,0 mm 4,0 km/h (1 Bft) O-SO 247 2 min 0 W/m 6,6 C 9,2 C 7,6 km/h (2 Bft)
19/04/2012 19:10 9,2 C 85 % 995,0 hPa 0,0 mm 4,0 km/h (1 Bft) SO 225 2 min 0 W/m 6,8 C 9,2 C 7,2 km/h (2 Bft)
19/04/2012 19:20 9,3 C 85 % 995,1 hPa 0,0 mm 4,3 km/h (1 Bft) SO 225 2 min 0 W/m 6,9 C 9,3 C 7,2 km/h (2 Bft)
19/04/2012 19:30 9,4 C 84 % 995,1 hPa 0,0 mm 8,3 km/h (2 Bft) S-SO 202 2 min 0 W/m 6,8 C 8,2 C 9,7 km/h (2 Bft)
19/04/2012 19:40 9,6 C 83 % 995,2 hPa 0,0 mm 4,7 km/h (1 Bft) SO 225 2 min 0 W/m 6,9 C 9,4 C 11,5 km/h (2 Bft)
19/04/2012 19:50 9,7 C 82 % 995,2 hPa 0,0 mm 5,4 km/h (2 Bft) SO 225 2 min 0 W/m 6,8 C 9,3 C 12,2 km/h (2 Bft)
19/04/2012 20:00 9,8 C 79 % 995,4 hPa 0,0 mm 8,6 km/h (2 Bft) SO 225 2 min 0 W/m 6,3 C 8,7 C 15,1 km/h (3 Bft)
19/04/2012 20:10 9,8 C 78 % 995,5 hPa 0,0 mm 6,8 km/h (2 Bft) SO 225 2 min 0 W/m 6,1 C 9,0 C 13,7 km/h (3 Bft)
19/04/2012 20:20 9,8 C 76 % 995,7 hPa 0,0 mm 4,7 km/h (1 Bft) SO 225 2 min 0 W/m 5,8 C 9,6 C 17,3 km/h (3 Bft)
19/04/2012 20:30 9,5 C 75 % 995,9 hPa 0,0 mm 4,3 km/h (1 Bft) O 270 2 min 0 W/m 5,3 C 9,5 C 8,6 km/h (2 Bft)
19/04/2012 20:40 9,1 C 76 % 996,1 hPa 0,0 mm 4,0 km/h (1 Bft) O-SO 247 0 min 0 W/m 5,1 C 9,1 C 11,5 km/h (2 Bft)
19/04/2012 20:50 8,8 C 77 % 996,2 hPa 0,0 mm 4,3 km/h (1 Bft) S-SO 202 0 min 0 W/m 5,0 C 8,8 C 8,3 km/h (2 Bft)
19/04/2012 21:00 8,4 C 77 % 996,4 hPa 0,0 mm 7,6 km/h (2 Bft) O 270 0 min 0 W/m 4,6 C 7,2 C 13,0 km/h (3 Bft)
19/04/2012 21:10 8,1 C 78 % 996,7 hPa 0,0 mm 3,6 km/h (1 Bft) O-SO 247 0 min 0 W/m 4,5 C 8,1 C 3,6 km/h (1 Bft)
19/04/2012 21:20 8,0 C 78 % 996,8 hPa 0,0 mm 5,0 km/h (1 Bft) O 270 0 min 0 W/m 4,4 C 7,5 C 5,0 km/h (1 Bft)
19/04/2012 21:30 7,8 C 79 % 997,0 hPa 0,0 mm 4,3 km/h (1 Bft) S-SO 202 0 min 0 W/m 4,4 C 7,8 C 8,3 km/h (2 Bft)
19/04/2012 21:40 7,6 C 80 % 997,1 hPa 0,0 mm 2,5 km/h (1 Bft) O-SO 247 0 min 0 W/m 4,4 C 7,6 C 6,5 km/h (2 Bft)
19/04/2012 21:50 7,4 C 80 % 997,3 hPa 0,0 mm 0,0 km/h (0 Bft) S-SO 202 0 min 0 W/m 4,2 C 7,4 C 4,0 km/h (1 Bft)
19/04/2012 22:00 7,2 C 80 % 997,5 hPa 0,0 mm 7,6 km/h (2 Bft) O-SO 247 0 min 0 W/m 4,0 C 5,8 C 7,6 km/h (2 Bft)
19/04/2012 22:10 6,9 C 80 % 997,6 hPa 0,0 mm 2,5 km/h (1 Bft) SO 225 0 min 0 W/m 3,7 C 6,9 C 3,6 km/h (1 Bft)
19/04/2012 22:20 6,9 C 81 % 997,7 hPa 0,0 mm 2,2 km/h (1 Bft) S-SO 202 0 min 0 W/m 3,9 C 6,9 C 3,6 km/h (1 Bft)
19/04/2012 22:30 6,8 C 81 % 997,9 hPa 0,0 mm 6,5 km/h (2 Bft) O-SO 247 0 min 0 W/m 3,8 C 5,6 C 6,5 km/h (2 Bft)
19/04/2012 22:40 6,8 C 81 % 998,0 hPa 0,0 mm 9,0 km/h (2 Bft) S-SO 202 0 min 0 W/m 3,8 C 5,0 C 14,8 km/h (3 Bft)
19/04/2012 22:50 6,6 C 82 % 998,0 hPa 0,0 mm 6,1 km/h (2 Bft) O-SO 247 0 min 0 W/m 3,8 C 5,5 C 8,6 km/h (2 Bft)
19/04/2012 23:00 6,5 C 83 % 998,1 hPa 0,0 mm 6,1 km/h (2 Bft) O-SO 247 0 min 0 W/m 3,8 C 5,4 C 9,0 km/h (2 Bft)
19/04/2012 23:10 6,4 C 84 % 998,1 hPa 0,0 mm 6,5 km/h (2 Bft) SO 225 0 min 0 W/m 3,9 C 5,2 C 6,8 km/h (2 Bft)
19/04/2012 23:20 6,2 C 85 % 998,1 hPa 0,0 mm 7,2 km/h (2 Bft) S-SO 202 0 min 0 W/m 3,9 C 4,8 C 11,9 km/h (2 Bft)
19/04/2012 23:30 6,1 C 85 % 998,2 hPa 0,0 mm 5,4 km/h (2 Bft) S-SO 202 0 min 0 W/m 3,8 C 5,2 C 7,6 km/h (2 Bft)
19/04/2012 23:40 6,0 C 86 % 998,3 hPa 0,0 mm 5,0 km/h (1 Bft) O-SO 247 0 min 0 W/m 3,8 C 5,2 C 12,2 km/h (2 Bft)
19/04/2012 23:50 5,9 C 86 % 998,2 hPa 0,0 mm 6,5 km/h (2 Bft) S 180 0 min 0 W/m 3,7 C 4,6 C 9,7 km/h (2 Bft)
_ Min-Heure 23:50 14:10 06:20 - 21:50 - - - - 22:10 09:30 16:10
Minimum _ 5,9 C 67 % 991,2 hPa - 0,0 km/h (0 Bft) - - - - 3,7 C 3,8 C 0,0 km/h (0 Bft)
_ Max-Heure 14:10 09:30 23:40 01:50 09:30 - - 20:30 23:50 15:20 14:10 09:30
Maximum _ 12,8 C 93 % 998,3 hPa 0,8 mm 14,4 km/h
SO (3 Bft)
- - 2 min 0 W/m 8,2 C 12,8 C 18,4 km/h
SO (3 Bft)
Moyenne _ 8,0 C 86 % 993,6 hPa #7,7 mm 6,4 km/h (2 Bft) SO - #2:40 h 0 W/m 5,8 C 7,2 C 9,8 km/h (2 Bft)
Saint Bonnet de Bellac- Haute Vienne - France